Location: Boiro
(42.6475°N, 8.8834°W)
Time: 17:18:21
(UTC+01:00)

Transit 2A Rocket - Pass Details

Date: 05 December 2021
Orbit: 584 x 918 km, 66.7° (Epoch: 19 January)

Event Time Altitude Azimuth Distance (km) Brightness Sun altitude
Rises 18:43:14 0° 320° (NW) 3,546 8.7 -7.6°
Reaches altitude 10° 18:46:06 10° 310° (NW) 2,577 8.1 -8.1°
Maximum altitude 18:51:11 29° 252° (WSW) 1,523 7.5 -8.9°
Drops below altitude 10° 18:55:59 10° 194° (SSW) 2,419 8.1 -9.7°
Sets 18:58:36 0° 183° (S) 3,293 8.6 -10.2°
